Tracking 18840 objects as of 17-November-2017
HD Live streaming from Space Station
objects crossing your sky now

FENGYUN 1C DEB

Track FENGYUN 1C DEB now!
10-day predictions


NORAD ID: 32227
Int'l Code: 1999-025CVZ
Perigee: 545.5 km
Apogee: 748.5 km
Inclination: 99.5 °
Period: 97.5 minutes
Semi major axis: 7018 km
RCS: 0.0079 m2 (small)
Launch date: May 10, 1999
Source: People's Republic of China (PRC)
Launch site: Taiyaun Space Center, China (TSC)

Note: This is SATELLITE DEBRIS
aabbcc
Your satellite tracking list
Your tracking list is empty




NASA's NSSDC Master Catalog

Two Line Element Set (TLE):
1 32227U 99025CVZ 17319.98207267  .00001886  00000-0  23706-3 0  9997
2 32227  99.4687 229.8603 0144609 286.6868 132.7987 14.76666671556844
Source of the keplerian elements: AFSPC